Hoquiam, WA
on Saturday, December 29, 2012

Saturday
Previous Day Next Day
Daily Summary
 ActualAverageRecord
Temperature
Mean Temperature °F 41°F  
Max Temperature 44°F 46°F 56°F (1976)
Min Temperature 39°F 37°F 16°F (1968)
Degree Days
Heating Degree Days 24 24  
Month to date heating degree days 683  
Cooling Degree Days 0 0  
Month to date cooling degree days 0  
Year to date cooling degree days 23  
Moisture
Dew Point 40°F   
Average Humidity 94    
Maximum Humidity 100    
Minimum Humidity 87    
Precipitation
Precipitation 0.01 in 0.32 in 2.80 in (1988)
Month to date precipitation 9.34  
Year to date precipitation 66.93  
Wind
Wind Speed 4 mph   
Max Wind Speed 7 mph   
Max Gust Speed mph   
Visibility 8 miles   
Events Rain   

Key: T is trace of precipitation, MM is missing value
Source: NWS Daily Summary
Time(PST)TemperatureDew PointHumidity Pressure Visibility Wind DirectionWind SpeedGust SpeedPrecipitationEvents Conditions
12:53 AM 41.0°F 39.0°F 93% 30.15 in 9.0 miles ENE 6.9 mph - N/A   Mostly Cloudy
1:18 AM 41.0°F 39.2°F 93% 30.15 in 9.0 miles NE 5.8 mph - N/A   Overcast
1:53 AM 41.0°F 39.9°F 96% 30.18 in 10.0 miles NNE 3.5 mph - N/A   Overcast
2:53 AM 41.0°F 39.0°F 93% 30.18 in 10.0 miles ENE 3.5 mph - N/A   Overcast
3:53 AM 39.9°F 39.0°F 97% 30.18 in 10.0 miles NE 6.9 mph - N/A   Overcast
4:01 AM 39.2°F 39.2°F 100% 30.16 in 10.0 miles ENE 6.9 mph - N/A   Overcast
4:53 AM 39.9°F 39.0°F 97% 30.17 in 7.0 miles ENE 5.8 mph - N/A   Overcast
5:25 AM 39.2°F 39.2°F 100% 30.16 in 6.0 miles ENE 4.6 mph - N/A   Overcast
5:44 AM 39.2°F 39.2°F 100% 30.16 in 7.0 miles ENE 4.6 mph - 0.00 in Rain Light Rain
5:53 AM 39.9°F 39.0°F 97% 30.17 in 7.0 miles NE 4.6 mph - 0.00 in   Overcast
6:22 AM 39.2°F 39.2°F 100% 30.17 in 9.0 miles NE 3.5 mph - N/A   Overcast
6:53 AM 39.9°F 37.9°F 93% 30.18 in 10.0 miles ENE 3.5 mph - N/A   Overcast
7:41 AM 39.2°F 39.2°F 100% 30.16 in 6.0 miles ENE 4.6 mph - N/A   Overcast
7:53 AM 39.9°F 39.0°F 97% 30.18 in 5.0 miles ENE 4.6 mph - N/A   Overcast
8:02 AM 39.2°F 39.2°F 100% 30.17 in 3.0 miles NE 3.5 mph - N/A   Overcast
8:09 AM 39.2°F 39.2°F 100% 30.18 in 2.0 miles NE 3.5 mph - N/A   Overcast
8:19 AM 39.2°F 39.2°F 100% 30.18 in 1.8 miles NE 4.6 mph - 0.01 in   Overcast
8:36 AM 39.2°F 39.2°F 100% 30.18 in 1.5 miles NE 5.8 mph - 0.01 in   Overcast
8:42 AM 39.2°F 39.2°F 100% 30.18 in 3.0 miles NE 4.6 mph - 0.01 in   Overcast
8:53 AM 39.9°F 39.0°F 97% 30.19 in 3.0 miles NE 3.5 mph - 0.01 in   Overcast
9:53 AM 41.0°F 39.0°F 93% 30.20 in 5.0 miles ENE 5.8 mph - N/A   Overcast
10:00 AM 41.0°F 39.2°F 93% 30.18 in 4.0 miles ENE 5.8 mph - N/A   Overcast
10:36 AM 41.0°F 39.2°F 93% 30.17 in 9.0 miles East 6.9 mph - N/A   Overcast
10:53 AM 41.0°F 39.9°F 96% 30.19 in 10.0 miles ENE 5.8 mph - N/A   Overcast
11:53 AM 43.0°F 39.9°F 89% 30.19 in 10.0 miles Calm Calm - N/A   Overcast
12:14 PM 42.8°F 39.2°F 87% 30.17 in 4.0 miles Calm Calm - N/A   Overcast
12:18 PM 42.8°F 39.2°F 87% 30.17 in 2.5 miles Calm Calm - N/A   Overcast
12:25 PM 42.8°F 39.2°F 87% 30.16 in 3.0 miles Calm Calm - N/A   Overcast
12:39 PM 42.8°F 39.2°F 87% 30.16 in 6.0 miles Calm Calm - N/A   Overcast
12:48 PM 42.8°F 39.2°F 87% 30.15 in 10.0 miles Calm Calm - N/A   Overcast
12:53 PM 43.0°F 39.9°F 89% 30.16 in 10.0 miles Calm Calm - N/A   Overcast
1:53 PM 43.0°F 39.9°F 89% 30.14 in 10.0 miles Calm Calm - N/A   Overcast
2:27 PM 44.6°F 41.0°F 87% 30.13 in 10.0 miles Calm Calm - N/A   Overcast
2:53 PM 44.6°F 42.8°F 93% 30.13 in 10.0 miles NNW 4.6 mph - N/A   Overcast
3:53 PM 44.1°F 42.1°F 93% 30.15 in 10.0 miles Calm Calm - N/A   Overcast
4:38 PM 42.8°F 41.0°F 93% 30.14 in 10.0 miles SW 3.5 mph - N/A   Overcast
4:53 PM 43.0°F 41.0°F 93% 30.15 in 10.0 miles Calm Calm - N/A   Mostly Cloudy
5:04 PM 42.8°F 41.0°F 93% 30.14 in 10.0 miles Calm Calm - N/A   Mostly Cloudy
5:15 PM 42.8°F 41.0°F 93% 30.14 in 10.0 miles Calm Calm - N/A   Overcast
5:53 PM 43.0°F 41.0°F 93% 30.16 in 10.0 miles Calm Calm - N/A   Overcast
6:53 PM 43.0°F 41.0°F 93% 30.17 in 7.0 miles Calm Calm - N/A   Overcast
7:25 PM 42.8°F 42.8°F 100% 30.16 in 10.0 miles Calm Calm - N/A   Overcast
7:53 PM 43.0°F 41.0°F 93% 30.17 in 10.0 miles ENE 3.5 mph - N/A   Overcast
8:53 PM 43.0°F 41.0°F 93% 30.18 in 7.0 miles East 6.9 mph - N/A   Overcast
9:30 PM 42.8°F 41.0°F 93% 30.18 in 9.0 miles NE 4.6 mph - N/A   Overcast
9:53 PM 42.1°F 41.0°F 96% 30.20 in 10.0 miles ENE 4.6 mph - N/A   Overcast
10:03 PM 42.8°F 41.0°F 93% 30.19 in 10.0 miles NE 5.8 mph - N/A   Overcast
10:53 PM 42.1°F 39.9°F 92% 30.22 in 10.0 miles ENE 4.6 mph - N/A   Overcast
11:42 PM 42.8°F 39.2°F 87% 30.21 in 10.0 miles ENE 4.6 mph - N/A   Overcast
11:53 PM 42.1°F 39.9°F 92% 30.23 in 10.0 miles ENE 5.8 mph - N/A   Overcast
Moon Phase
Dec. 29 Jan. 04 Jan. 11 Jan. 18 Jan. 26
Sunrise:08:01 AM (PST) Moon Rise:06:20 PM (PST)12/29
Sunset:04:35 PM (PST) Moon Set:08:32 AM (PST)12/29

Copyright © 2014 The Weather Underground, Inc.